Weather History for Asheville, NC

Change the Weather History Date:

Monday, March 3, 2014

  Actual Average Record
Temperature  
Mean Temperature 44 °F 44 °F  
Max Temperature 57 °F 55 °F 80 °F (1976)
Min Temperature 30 °F 33 °F 9 °F (1980)
Degree Days  
Heating Degree Days 21 21  
Month to date heating degree days 59 64  
Since 1 July heating degree days 3378 3281  
Cooling Degree Days 0 0  
Month to date cooling degree days 0 0  
Year to date cooling degree days 0 0  
Moisture  
Dew Point 37 °F    
Average Humidity 81    
Maximum Humidity 100    
Minimum Humidity 61    
Precipitation  
Precipitation 0.18 in 0.12 in 1.25 in (1934)
Month to date precipitation 0.18 0.37  
Year to date precipitation 5.53 7.80  
Snow  
Snow 0.00 in 0.10 in 3.80 in (1942)
Month to date snowfall T 0.2  
Since 1 July snowfall 9.4 7.5  
Snow Depth 0.00 in    
Sea Level Pressure  
Sea Level Pressure 29.93 in    
Wind  
Wind Speed 11 mph (North)    
Max Wind Speed 26 mph    
Max Gust Speed 33 mph    
Visibility 9 miles    
Events Rain    
T = Trace of Precipitation, MM = Missing Value Source: NWS Daily Summary

Daily Weather History Graph

Daily Weather History Graph

Search for Another Location

Airport:

Trip Planner

Search our weather history database for the weather conditions in past years. The results will help you decide how hot, cold, wet, or windy it might be!

Date:

Astronomy

Mar. 03, 2014 Rise Set
Actual Time 6:57 AM EST 6:27 PM EST
Civil Twilight 6:31 AM EST 6:52 PM EST
Nautical Twilight 6:02 AM EST 7:22 PM EST
Astronomical Twilight 5:32 AM EST 7:51 PM EST
Moon 8:11 AM EST (3/3) 9:21 PM EST (3/3)
Length of Visible Light 12h 21m
Length of Day
11h 30m
Waxing Crescent, 8% of the Moon is Illuminated
Mar 3
Waxing Crescent
Mar 8
First Quarter
Mar 16
Full
Mar 23
Last Quarter
Mar 30
New

Hourly Weather History & Observations

Time (EST) Temp. Windchill Dew Point Humidity Pressure Visibility Wind Dir Wind Speed Gust Speed Precip Events Conditions
12:54 AM 51.1 °F - 44.1 °F 77% 29.86 in 10.0 mi Calm Calm - N/A   Clear
1:54 AM 54.0 °F - 45.0 °F 72% 29.83 in 10.0 mi SSW 5.8 mph - N/A   Scattered Clouds
2:54 AM 54.0 °F - 45.0 °F 72% 29.80 in 10.0 mi Calm Calm - N/A   Mostly Cloudy
3:54 AM 55.9 °F - 44.1 °F 64% 29.76 in 10.0 mi Calm Calm - N/A   Overcast
4:54 AM 55.0 °F - 43.0 °F 64% 29.74 in 10.0 mi SSE 5.8 mph - N/A   Mostly Cloudy
5:54 AM 55.9 °F - 42.1 °F 60% 29.70 in 10.0 mi South 11.5 mph - N/A   Overcast
6:54 AM 52.0 °F - 51.1 °F 97% 29.78 in 5.0 mi NNW 12.7 mph - 0.04 in Rain Rain
7:25 AM 51.8 °F - 51.8 °F 100% 29.83 in 9.0 mi North 9.2 mph - 0.04 in Rain Rain
7:39 AM 50.0 °F - 50.0 °F 100% 29.82 in 10.0 mi NE 4.6 mph - 0.05 in Rain Light Rain
7:54 AM 50.0 °F - 48.9 °F 96% 29.79 in 10.0 mi North 6.9 mph - 0.05 in Rain Light Rain
8:54 AM 48.0 °F - 46.0 °F 93% 29.79 in 10.0 mi North 9.2 mph - 0.00 in   Scattered Clouds
9:54 AM 48.0 °F - 44.1 °F 86% 29.81 in 10.0 mi North 10.4 mph - N/A   Overcast
10:28 AM 48.2 °F - 44.6 °F 87% 29.85 in 10.0 mi North 13.8 mph - 0.00 in Rain Light Rain
10:54 AM 46.9 °F - 45.0 °F 93% 29.82 in 6.0 mi North 12.7 mph - 0.00 in Rain Light Rain
11:54 AM 46.9 °F - 43.0 °F 86% 29.83 in 10.0 mi NNW 15.0 mph 21.9 mph 0.00 in   Overcast
12:54 PM 41.0 °F 31.1 °F 41.0 °F 100% 29.86 in 9.0 mi NNW 23.0 mph 28.8 mph 0.02 in Rain Light Rain
1:52 PM 37.4 °F 28.2 °F 37.4 °F 100% 29.90 in 5.0 mi North 16.1 mph 27.6 mph 0.02 in Rain Light Rain
1:54 PM 36.0 °F 25.6 °F 36.0 °F 100% 29.89 in 5.0 mi North 18.4 mph 24.2 mph 0.02 in Rain Light Rain
2:47 PM 35.6 °F 25.5 °F 35.6 °F 100% 29.92 in 10.0 mi North 17.3 mph 24.2 mph 0.03 in Rain Light Rain
2:54 PM 35.1 °F 24.8 °F 35.1 °F 100% 29.92 in 9.0 mi NNW 17.3 mph 24.2 mph 0.03 in Rain Light Rain
3:04 PM 35.6 °F 25.5 °F 35.6 °F 100% 29.93 in 10.0 mi North 17.3 mph 25.3 mph 0.01 in Rain Light Rain
3:54 PM 36.0 °F 27.1 °F 35.1 °F 97% 29.96 in 10.0 mi North 13.8 mph 23.0 mph 0.02 in Rain Light Rain
4:02 PM 35.6 °F 26.6 °F 35.6 °F 100% 29.97 in 10.0 mi North 13.8 mph 21.9 mph 0.00 in Rain Light Rain
4:54 PM 36.0 °F 28.0 °F 35.1 °F 97% 29.98 in 10.0 mi North 11.5 mph 19.6 mph 0.00 in   Overcast
5:24 PM 35.6 °F 26.6 °F 32.0 °F 87% 30.01 in 10.0 mi North 13.8 mph 24.2 mph N/A   Overcast
5:54 PM 34.0 °F 25.0 °F 30.9 °F 89% 30.01 in 10.0 mi North 12.7 mph - 0.00 in Rain Light Rain
6:30 PM 33.8 °F 23.9 °F 30.2 °F 87% 30.03 in 10.0 mi North 15.0 mph 20.7 mph 0.00 in   Overcast
6:54 PM 32.0 °F 22.5 °F 28.9 °F 88% 30.06 in 10.0 mi North 12.7 mph - 0.00 in   Overcast
7:10 PM 32.0 °F 22.1 °F 28.4 °F 87% 30.07 in 10.0 mi North 13.8 mph 24.2 mph N/A   Overcast
7:46 PM 30.2 °F 19.3 °F 26.6 °F 86% 30.09 in 10.0 mi North 15.0 mph 27.6 mph N/A   Overcast
7:54 PM 30.9 °F 19.8 °F 27.0 °F 85% 30.10 in 10.0 mi North 16.1 mph 24.2 mph N/A   Overcast
8:08 PM 30.2 °F 20.8 °F 26.6 °F 86% 30.10 in 10.0 mi North 11.5 mph 23.0 mph N/A   Overcast
8:54 PM 30.9 °F 20.7 °F 27.0 °F 85% 30.12 in 10.0 mi North 13.8 mph 20.7 mph N/A   Overcast
9:54 PM 30.9 °F 23.5 °F 26.1 °F 82% 30.14 in 10.0 mi NNE 8.1 mph - N/A   Overcast
10:32 PM 30.2 °F 21.3 °F 26.6 °F 86% 30.14 in 10.0 mi NNW 10.4 mph - N/A   Overcast
10:54 PM 30.0 °F 21.1 °F 25.0 °F 82% 30.15 in 10.0 mi North 10.4 mph - N/A   Overcast
11:49 PM 30.2 °F 21.9 °F 26.6 °F 86% 30.14 in 10.0 mi NNW 9.2 mph - N/A   Overcast
11:54 PM 30.9 °F 23.5 °F 26.1 °F 82% 30.14 in 10.0 mi NNW 8.1 mph - N/A   Overcast